Flag for United Kingdom Weather past 2 weeks in Cardiff, Wales, United Kingdom

Now
68 °F

Passing clouds.


Feels Like: 68 °F
Forecast: 54 / 61 °F
Wind: 5 mph from North

Location: Wales Airport

Current Time: Aug 29, 2015 at 2:02:53 PM

Latest Report: Aug 29, 2015 at 1:20 PM


Visibility: N/A

Pressure: 30.09 "Hg

Humidity: 56%

Dew point: 52 °F

Location of CardiffLocation

Historic Weather in Cardiff — Graph

°F

Cardiff temperature yesterday

Maximum temperature yesterday: 66 °F (at 2:20 PM)
Minimum temperature yesterday: 55 °F (at 1:50 AM)
Average temperature yesterday: 61 °F

Past Weeks' High & Low Weather Summary

 TemperatureHumidityPressure
High75 °F (Aug 22, 3:20 PM)100% (Aug 14, 12:50 PM)30.12 "Hg (Aug 14, 12:50 PM)
Low50 °F (Aug 15, 4:50 AM)40% (Aug 17, 2:20 PM)29.50 "Hg (Aug 24, 4:50 AM)
Average60 °F85%29.87 "Hg
* Reported Aug 14 12:20 PM — Aug 29 12:50 PM, Cardiff, Weather by CustomWeather, © 2015

Note: Actual official high and low records may vary slightly from our data, if they occured in-between our weather recording intervals... More about our weather records

Advertising

Cardiff weather history for previous 24 hours

 ConditionsComfort  
Time TempWeatherWind HumidityBarometerVisibility
12:50 PM
Sat, Aug 29
64 °FPassing clouds.3 mph64%30.09 "HgN/A
12:20 PM66 °FMild.6 mph64%30.09 "HgN/A
11:50 AM64 °FPassing clouds.6 mph73%30.09 "HgN/A
10:50 AM63 °FPassing clouds.7 mph77%30.12 "HgN/A
10:20 AM61 °FPassing clouds.6 mph77%30.12 "HgN/A
9:50 AM61 °FPassing clouds.7 mph83%30.12 "HgN/A
8:50 AM59 °FPassing clouds.7 mph88%30.09 "HgN/A
8:20 AM59 °FPassing clouds.7 mph82%30.09 "HgN/A
7:50 AM57 °FPassing clouds.5 mph88%30.09 "HgN/A
6:50 AM57 °FPassing clouds.5 mph88%30.09 "HgN/A
6:20 AM57 °FPassing clouds.6 mph88%30.09 "HgN/A
5:50 AM57 °FPassing clouds.6 mph88%30.09 "HgN/A
5:20 AM57 °FClear.6 mph82%30.09 "Hg10 mi
4:50 AM57 °FCool.6 mph82%30.09 "HgN/A
3:50 AM57 °FClear.5 mph88%30.09 "Hg10 mi
3:20 AM57 °FPassing clouds.5 mph88%30.09 "HgN/A
2:50 AM57 °FClear.6 mph88%30.07 "Hg10 mi
2:20 AM59 °FClear.7 mph82%30.07 "Hg10 mi
1:50 AM59 °FPassing clouds.3 mph82%30.07 "HgN/A
1:20 AM59 °FPassing clouds.3 mph82%30.07 "HgN/A
12:50 AM59 °FPassing clouds.6 mph82%30.07 "HgN/A
12:20 AM59 °FClear.8 mph82%30.09 "Hg10 mi
11:50 PM
Fri, Aug 28
59 °FPassing clouds.7 mph82%30.09 "HgN/A
11:20 PM59 °FCool.8 mph82%30.09 "HgN/A
10:50 PM59 °FPassing clouds.8 mph77%30.07 "HgN/A
10:20 PM59 °FClear.6 mph77%30.07 "Hg10 mi
9:50 PM61 °FPassing clouds.8 mph72%30.07 "HgN/A
9:20 PM61 °FPassing clouds.7 mph72%30.07 "HgN/A
8:50 PM61 °FPassing clouds.6 mph72%30.07 "HgN/A
8:20 PM61 °FScattered clouds.8 mph72%30.04 "HgN/A
7:50 PM61 °FScattered clouds.7 mph72%30.04 "HgN/A
7:20 PM63 °FPassing clouds.7 mph68%30.04 "HgN/A
6:50 PM63 °FPassing clouds.10 mph73%30.04 "HgN/A
6:20 PM63 °FPassing clouds.10 mph73%30.04 "HgN/A
5:50 PM64 °FScattered clouds.13 mph68%30.04 "HgN/A
5:20 PM64 °FScattered clouds.15 mph68%30.04 "HgN/A
4:50 PM66 °FPassing clouds.15 mph64%30.01 "HgN/A
4:20 PM66 °FPassing clouds.13 mph60%30.01 "HgN/A
3:50 PM66 °FPassing clouds.16 mph60%30.01 "HgN/A
3:20 PM66 °FPassing clouds.14 mph60%30.01 "HgN/A
2:50 PM66 °FScattered clouds.14 mph64%30.01 "HgN/A
2:20 PM66 °FScattered clouds.10 mph64%30.01 "HgN/A
Weather by CustomWeather, © 2015

See weather overviewHow to use our weather pages